Flag for Thailand Weather past 2 weeks in Phuket, Thailand

81 °F

Passing clouds.

Feels Like: 85 °F
Forecast: 79 / 87 °F
Wind: No wind

Location: Phuket Airport

Current Time: Nov 26, 2015 at 8:15:30 PM

Latest Report: Nov 26, 2015 at 7:30 PM

Visibility: N/A

Pressure: 29.80 "Hg

Humidity: 79%

Dew point: 73 °F

Location of PhuketLocation

Historic Weather in Phuket — Graph


Phuket temperature yesterday

Maximum temperature yesterday: 88 °F (at 2:00 PM)
Minimum temperature yesterday: 77 °F (at 5:00 AM)
Average temperature yesterday: 81 °F

Past Weeks' High & Low Weather Summary

High91 °F (Nov 21, 2:00 PM)94% (Nov 13, 12:30 AM)29.92 "Hg (Nov 13, 12:30 AM)
Low75 °F (Nov 15, 1:00 AM)52% (Nov 14, 2:30 PM)29.71 "Hg (Nov 26, 3:30 PM)
Average82 °F78%29.83 "Hg
* Reported Nov 11 7:00 PM — Nov 26 7:00 PM, Phuket, Weather by CustomWeather, © 2015

Note: Actual official high and low records may vary slightly from our data, if they occured in-between our weather recording intervals... More about our weather records


Phuket weather history for previous 24 hours

Time TempWeatherWind HumidityBarometerVisibility
7:00 PM
Thu, Nov 26
81 °FPassing clouds.No wind79%29.80 "HgN/A
6:30 PM82 °FPassing clouds.No wind74%29.77 "HgN/A
6:00 PM84 °FBroken clouds.12 mph70%29.74 "HgN/A
5:30 PM88 °FPartly sunny.3 mph62%29.74 "HgN/A
5:00 PM90 °FPassing clouds.6 mph59%29.71 "HgN/A
4:30 PM90 °FPassing clouds.8 mph59%29.71 "HgN/A
4:00 PM90 °FPassing clouds.9 mph55%29.71 "HgN/A
3:30 PM90 °FPassing clouds.9 mph55%29.71 "HgN/A
3:00 PM90 °FPassing clouds.9 mph55%29.74 "HgN/A
2:30 PM90 °FPassing clouds.14 mph55%29.74 "HgN/A
1:30 PM90 °FPassing clouds.14 mph55%29.77 "HgN/A
1:00 PM90 °FPassing clouds.14 mph59%29.80 "HgN/A
12:30 PM88 °FPassing clouds.14 mph62%29.80 "HgN/A
12:00 PM88 °FPassing clouds.9 mph62%29.83 "HgN/A
11:30 AM88 °FPassing clouds.12 mph62%29.83 "HgN/A
10:30 AM86 °FScattered clouds.12 mph66%29.86 "HgN/A
10:00 AM86 °FScattered clouds.14 mph66%29.86 "HgN/A
9:30 AM86 °FScattered clouds.9 mph66%29.86 "HgN/A
9:00 AM84 °FScattered clouds.9 mph70%29.83 "HgN/A
8:30 AM84 °FScattered clouds.9 mph70%29.83 "HgN/A
8:00 AM82 °FScattered clouds.8 mph74%29.83 "HgN/A
7:30 AM81 °FScattered clouds.9 mph79%29.83 "HgN/A
7:00 AM77 °FScattered clouds.3 mph94%29.83 "HgN/A
6:30 AM77 °FPartly sunny.No wind89%29.83 "Hg6 mi
5:00 AM77 °FPassing clouds.No wind89%29.80 "Hg6 mi
4:00 AM77 °FPassing clouds.No wind89%29.80 "Hg6 mi
3:30 AM77 °FPassing clouds.No wind89%29.80 "Hg6 mi
3:00 AM77 °FPassing clouds.No wind89%29.83 "Hg6 mi
2:30 AM77 °FPassing clouds.No wind89%29.83 "Hg6 mi
2:00 AM77 °FPassing clouds.No wind89%29.83 "Hg6 mi
1:30 AM77 °FPassing clouds.No wind89%29.86 "Hg6 mi
1:00 AM77 °FPassing clouds.No wind89%29.86 "Hg6 mi
12:30 AM77 °FPassing clouds.No wind89%29.86 "Hg6 mi
12:00 AM77 °FPassing clouds.No wind89%29.86 "Hg6 mi
11:30 PM
Wed, Nov 25
79 °FPassing clouds.No wind84%29.86 "Hg6 mi
11:00 PM81 °FPassing clouds.6 mph79%29.86 "Hg6 mi
10:30 PM81 °FPassing clouds.5 mph79%29.86 "Hg6 mi
10:00 PM81 °FPassing clouds.5 mph79%29.86 "Hg6 mi
9:30 PM79 °FPassing clouds.No wind89%29.86 "Hg6 mi
9:00 PM79 °FPassing clouds.No wind84%29.86 "Hg6 mi
8:30 PM79 °FPassing clouds.No wind89%29.86 "Hg6 mi
8:00 PM79 °FPassing clouds.2 mph84%29.83 "Hg6 mi
Weather by CustomWeather, © 2015

See weather overviewHow to use our weather pages